Weather History for Ogallala, NE

Change the Weather History Date:

Thursday, July 4, 2013

  Actual Average Record
Temperature  
Mean Temperature 75 °F -  
Max Temperature 93 °F 90 °F 102 °F (1969)
Min Temperature 57 °F 57 °F 44 °F (1997)
Cooling Degree Days 10    
Growing Degree Days 25 (Base 50)    
Moisture  
Dew Point 48 °F    
Average Humidity 43    
Maximum Humidity 71    
Minimum Humidity 18    
Precipitation  
Precipitation 0.00 in - - ()
Sea Level Pressure  
Sea Level Pressure 29.90 in    
Wind  
Wind Speed 5 mph (SSE)    
Max Wind Speed 17 mph    
Max Gust Speed 25 mph    
Visibility 10 miles    
Events Rain , Thunderstorm    
Averages and records for this station are not official NWS values.
T = Trace of Precipitation, MM = Missing Value Source: NWS Daily Summary

Daily Weather History Graph

Daily Weather History Graph

Search for Another Location

Airport:

Trip Planner

Search our weather history database for the weather conditions in past years. The results will help you decide how hot, cold, wet, or windy it might be!

Date:

Astronomy

Jul. 04, 2013 Rise Set
Actual Time 5:20 AM MDT 8:22 PM MDT
Civil Twilight 4:46 AM MDT 8:56 PM MDT
Nautical Twilight 4:04 AM MDT 9:38 PM MDT
Astronomical Twilight 3:14 AM MDT 10:28 PM MDT
Moon 2:38 AM MDT (7/4) 5:28 PM MDT (7/4)
Length of Visible Light 16h 09m
Length of Day
15h 02m
Waning Crescent, 11% of the Moon is Illuminated
Jul 4
Waning Crescent
Jul 8
New
Jul 15
First Quarter
Jul 22
Full
Jul 29
Last Quarter

Hourly Weather History & Observations

Time (MDT) Temp. Heat Index Dew Point Humidity Pressure Visibility Wind Dir Wind Speed Gust Speed Precip Events Conditions
12:15 AM 66.4 °F - 42.3 °F 41% 29.93 in 10.0 mi SSE 4.6 mph - N/A   Clear
12:35 AM 66.6 °F - 42.1 °F 41% 29.94 in 10.0 mi East 4.6 mph - N/A   Clear
12:55 AM 63.7 °F - 43.0 °F 47% 29.94 in 10.0 mi NE 4.6 mph - N/A   Clear
1:15 AM 63.7 °F - 43.0 °F 47% 29.94 in 10.0 mi NE 4.6 mph - N/A   Clear
1:35 AM 65.3 °F - 41.9 °F 42% 29.94 in 10.0 mi SE 3.5 mph - N/A   Clear
1:55 AM 64.2 °F - 42.4 °F 45% 29.94 in 10.0 mi SE 6.9 mph - N/A   Clear
2:15 AM 63.7 °F - 42.8 °F 47% 29.93 in 10.0 mi SE 4.6 mph - N/A   Scattered Clouds
2:35 AM 63.1 °F - 43.2 °F 48% 29.93 in 10.0 mi Calm Calm - N/A   Scattered Clouds
2:55 AM 63.1 °F - 43.2 °F 48% 29.93 in 10.0 mi Calm Calm - N/A   Scattered Clouds
3:15 AM 64.0 °F - 43.7 °F 48% 29.93 in 10.0 mi South 4.6 mph - N/A   Scattered Clouds
3:35 AM 62.1 °F - 44.1 °F 52% 29.93 in 10.0 mi Calm Calm - N/A   Scattered Clouds
3:55 AM 61.7 °F - 44.4 °F 53% 29.93 in 10.0 mi Calm Calm - N/A   Clear
4:15 AM 60.1 °F - 44.6 °F 57% 29.93 in 10.0 mi Calm Calm - N/A   Clear
4:35 AM 59.9 °F - 44.8 °F 57% 29.93 in 10.0 mi Calm Calm - N/A   Clear
4:55 AM 59.5 °F - 45.0 °F 59% 29.93 in 10.0 mi Calm Calm - N/A   Scattered Clouds
5:15 AM 57.7 °F - 45.7 °F 64% 29.93 in 10.0 mi Calm Calm - N/A   Scattered Clouds
5:35 AM 59.4 °F - 45.9 °F 61% 29.93 in 10.0 mi Calm Calm - N/A   Scattered Clouds
5:55 AM 60.4 °F - 45.9 °F 59% 29.93 in 10.0 mi Calm Calm - N/A   Clear
6:15 AM 60.8 °F - 46.6 °F 59% 29.93 in 10.0 mi Calm Calm - N/A   Clear
6:35 AM 61.3 °F - 47.1 °F 60% 29.94 in 10.0 mi Calm Calm - N/A   Clear
6:55 AM 62.2 °F - 47.8 °F 59% 29.94 in 10.0 mi Calm Calm - N/A   Clear
7:15 AM 63.1 °F - 48.4 °F 59% 29.93 in 10.0 mi Calm Calm - N/A   Clear
7:35 AM 65.1 °F - 49.3 °F 56% 29.93 in 10.0 mi Calm Calm - N/A   Clear
7:55 AM 68.0 °F - 50.5 °F 54% 29.93 in 10.0 mi SSW 3.5 mph - N/A   Clear
8:15 AM 72.0 °F - 51.3 °F 48% 29.92 in 10.0 mi South 8.1 mph - N/A   Clear
8:35 AM 73.6 °F - 51.4 °F 46% 29.93 in 10.0 mi SSW 8.1 mph - N/A   Clear
8:55 AM 76.1 °F - 51.4 °F 42% 29.92 in 10.0 mi South 10.4 mph - N/A   Clear
9:35 AM 78.8 °F - 52.7 °F 40% 29.92 in 10.0 mi SSW 9.2 mph - N/A   Clear
10:15 AM 81.7 °F 80.9 °F 53.1 °F 37% 29.91 in 10.0 mi SSW 6.9 mph - N/A   Clear
10:55 AM 85.5 °F - 51.1 °F 30% 29.91 in 10.0 mi SSW 12.7 mph 17.3 mph N/A   Clear
11:15 AM 87.8 °F - 50.5 °F 28% 29.91 in 10.0 mi SSW 12.7 mph 16.1 mph N/A   Clear
11:35 AM 88.0 °F - 49.8 °F 27% 29.91 in 10.0 mi South 15.0 mph 18.4 mph N/A   Clear
11:55 AM 89.6 °F - 48.2 °F 24% 29.90 in 10.0 mi South 17.3 mph 21.9 mph N/A   Clear
12:15 PM 89.8 °F - 46.2 °F 22% 29.89 in 10.0 mi SSW 17.3 mph 23.0 mph N/A   Clear
12:35 PM 91.2 °F - 46.6 °F 21% 29.88 in 10.0 mi SSW 15.0 mph 21.9 mph N/A   Clear
1:15 PM 91.4 °F - 44.1 °F 19% 29.88 in 10.0 mi SSE 17.3 mph 25.3 mph N/A   Clear
1:35 PM 92.1 °F - 44.2 °F 19% 29.88 in 10.0 mi South 13.8 mph 24.2 mph N/A   Clear
1:55 PM 93.2 °F - 44.8 °F 19% 29.88 in 10.0 mi SW 9.2 mph 16.1 mph N/A   Clear
2:15 PM 93.4 °F - 44.2 °F 18% 29.88 in 10.0 mi SSW 5.8 mph - N/A   Clear
2:35 PM 93.2 °F - 44.1 °F 18% 29.87 in 10.0 mi SSW 10.4 mph 17.3 mph N/A   Clear
2:55 PM 92.8 °F - 43.5 °F 18% 29.86 in 10.0 mi SSE 10.4 mph 16.1 mph N/A   Clear
3:15 PM 92.3 °F - 43.5 °F 18% 29.85 in 10.0 mi South 10.4 mph - N/A   Clear
3:35 PM 91.2 °F - 43.2 °F 19% 29.84 in 10.0 mi SSE 10.4 mph 16.1 mph N/A   Clear
4:15 PM 86.5 °F - 49.3 °F 28% 29.86 in 10.0 mi NE 13.8 mph 21.9 mph N/A Rain Light Rain
6:15 PM 85.1 °F 83.5 °F 53.6 °F 34% 29.84 in 10.0 mi NE 5.8 mph - N/A Thunderstorm Clear
6:35 PM 85.8 °F - 51.3 °F 30% 29.86 in 10.0 mi NNE 8.1 mph - N/A   Clear
6:55 PM 84.7 °F 83.4 °F 54.7 °F 36% 29.86 in 10.0 mi NNE 4.6 mph - N/A   Clear
7:15 PM 82.4 °F 82.5 °F 58.8 °F 45% 29.86 in 10.0 mi ENE 3.5 mph - N/A   Clear
7:35 PM 83.3 °F 82.1 °F 53.4 °F 36% 29.87 in 10.0 mi Calm Calm - N/A   Clear
7:55 PM 80.8 °F 81.0 °F 57.7 °F 45% 29.87 in 10.0 mi ENE 4.6 mph - N/A   Clear
8:15 PM 80.6 °F 80.4 °F 54.3 °F 40% 29.87 in 10.0 mi East 4.6 mph - N/A   Clear
8:55 PM 77.5 °F - 51.8 °F 41% 29.88 in 10.0 mi East 6.9 mph - N/A   Clear
9:35 PM 72.3 °F - 53.8 °F 52% 29.89 in 10.0 mi Calm Calm - N/A   Mostly Cloudy
9:55 PM 72.3 °F - 53.4 °F 51% 29.89 in 10.0 mi Calm Calm - N/A   Scattered Clouds
10:15 PM 68.0 °F - 53.1 °F 59% 29.89 in 10.0 mi Calm Calm - N/A   Clear
10:35 PM 68.5 °F - 53.1 °F 58% 29.89 in 10.0 mi Calm Calm - N/A   Clear
10:55 PM 64.6 °F - 53.4 °F 67% 29.89 in 10.0 mi Calm Calm - N/A   Clear
11:15 PM 64.9 °F - 54.3 °F 68% 29.89 in 10.0 mi Calm Calm - N/A   Clear
11:35 PM 64.8 °F - 54.3 °F 69% 29.88 in 10.0 mi Calm Calm - N/A   Clear
11:55 PM 63.9 °F - 54.1 °F 71% 29.88 in 10.0 mi Calm Calm - N/A   Clear